Martha's Vineyard, MA

12:57 PM EDT on August 18, 2017 (GMT -0400)
Martha's Vineyard

Weather History for KMVY - January, 2013

Change the Weather History Date:

Tuesday, January 1, 2013

  Actual Average Record
Temperature  
Mean Temperature 32 °F -  
Max Temperature 39 °F 40 °F 55 °F (1973)
Min Temperature 25 °F 24 °F -1 °F (1963)
Degree Days  
Heating Degree Days 32    
Moisture  
Dew Point 21 °F    
Average Humidity 58    
Maximum Humidity 67    
Minimum Humidity 50    
Precipitation  
Precipitation 0.00 in - - ()
Sea Level Pressure  
Sea Level Pressure 29.81 in    
Wind  
Wind Speed 14 mph (WNW)    
Max Wind Speed 18 mph    
Max Gust Speed 30 mph    
Visibility 10 miles    
Events      
Averages and records for this station are not official NWS values.
T = Trace of Precipitation, MM = Missing Value Source: NWS Daily Summary

Daily Weather History Graph

Daily Weather History Graph

Search for Another Location

Airport or City:

Trip Planner

Search our weather history database for the weather conditions in past years. The results will help you decide how hot, cold, wet, or windy it might be!

Date:

Astronomy

Jan. 01, 2013 Rise Set
Actual Time 7:08 AM EST 4:23 PM EST
Civil Twilight 6:37 AM EST 4:55 PM EST
Nautical Twilight 6:02 AM EST 5:29 PM EST
Astronomical Twilight 5:29 AM EST 6:03 PM EST
Moon 8:54 PM EST (1/1) 9:16 AM EST (1/1)
Length of Visible Light 10h 17m
Length of Day
9h 15m
Waning Gibbous, 83% of the Moon is Illuminated
Jan 1
Waning Gibbous
Jan 4
Last Quarter
Jan 11
New
Jan 18
First Quarter
Jan 26
Full

Hourly Weather History & Observations

Time (EST) Temp. Windchill Dew Point Humidity Pressure Visibility Wind Dir Wind Speed Gust Speed Precip Events Conditions
12:53 AM 39.0 °F 31.4 °F 28.9 °F 67% 29.80 in 10.0 mi West 12.7 mph 21.9 mph N/A   Overcast
1:53 AM 39.0 °F 29.6 °F 26.1 °F 60% 29.78 in 10.0 mi West 18.4 mph 29.9 mph N/A   Overcast
2:53 AM 39.0 °F 31.8 °F 26.1 °F 60% 29.80 in 10.0 mi WNW 11.5 mph - N/A   Overcast
3:53 AM 37.9 °F 30.5 °F 27.0 °F 65% 29.78 in 10.0 mi West 11.5 mph 20.7 mph N/A   Overcast
4:53 AM 37.9 °F 30.9 °F 27.0 °F 65% 29.78 in 10.0 mi West 10.4 mph - N/A   Overcast
6:53 AM 37.9 °F 29.2 °F 27.0 °F 65% 29.79 in 10.0 mi West 15.0 mph 21.9 mph N/A   Clear
7:53 AM 37.9 °F 29.2 °F 27.0 °F 65% 29.80 in 10.0 mi West 15.0 mph 23.0 mph N/A   Clear
8:53 AM 39.0 °F 29.9 °F 26.1 °F 60% 29.81 in 10.0 mi West 17.3 mph 28.8 mph N/A   Mostly Cloudy
9:53 AM 39.0 °F 29.9 °F 25.0 °F 57% 29.81 in 10.0 mi WNW 17.3 mph 25.3 mph N/A   Clear
10:53 AM 37.9 °F 28.5 °F 25.0 °F 60% 29.80 in 10.0 mi WNW 17.3 mph 29.9 mph N/A   Clear
11:53 AM 37.0 °F 27.7 °F 24.1 °F 59% 29.79 in 10.0 mi WNW 16.1 mph 26.5 mph N/A   Mostly Cloudy
12:53 PM 37.0 °F 27.7 °F 21.9 °F 54% 29.75 in 10.0 mi NW 16.1 mph 23.0 mph N/A   Scattered Clouds
1:53 PM 36.0 °F 28.0 °F 21.9 °F 57% 29.76 in 10.0 mi WNW 11.5 mph - N/A   Scattered Clouds
2:53 PM 36.0 °F 27.5 °F 21.0 °F 55% 29.76 in 10.0 mi NW 12.7 mph - N/A   Clear
3:53 PM 35.1 °F 25.5 °F 19.0 °F 52% 29.77 in 10.0 mi WNW 15.0 mph 23.0 mph N/A   Clear
4:53 PM 34.0 °F 26.0 °F 18.0 °F 52% 29.80 in 10.0 mi WNW 10.4 mph 20.7 mph N/A   Clear
5:53 PM 32.0 °F 23.6 °F 16.0 °F 52% 29.81 in 10.0 mi NW 10.4 mph 24.2 mph N/A   Clear
6:53 PM 30.9 °F 19.4 °F 14.0 °F 50% 29.84 in 10.0 mi NW 17.3 mph 27.6 mph N/A   Clear
7:53 PM 28.9 °F 16.9 °F 12.9 °F 51% 29.87 in 10.0 mi NW 17.3 mph 25.3 mph N/A   Clear
8:53 PM 28.0 °F 17.5 °F 12.9 °F 53% 29.88 in 10.0 mi NW 12.7 mph 24.2 mph N/A   Clear
9:53 PM 27.0 °F 17.3 °F 12.9 °F 56% 29.90 in 10.0 mi NW 10.4 mph - N/A   Clear
10:53 PM 26.1 °F 14.5 °F 12.0 °F 55% 29.91 in 10.0 mi NW 13.8 mph 20.7 mph N/A   Clear
11:53 PM 25.0 °F 17.1 °F 10.0 °F 53% 29.92 in 10.0 mi NW 6.9 mph 18.4 mph N/A   Clear